Miscellaneous Local Product
Issued by NWS North Platte, NE

Home | Current Version | Previous Version | Text Only | Print | Product List | Glossary On
Versions: 1 2 3 4 5 6 7 8 9 10 11 12 13 14 15 16 17 18 19 20 21 22 23 24 25 26 27 28 29 30 31 32 33 34 35 36 37 38 39 40 41 42 43 44 45 46 47 48 49 50
000
AXUS43 KLBF 240410
MISLBF


WESTERN AND NORTH CENTRAL NEBRASKA HOURLY WEATHER ROUNDUP
NATIONAL WEATHER SERVICE NORTH PLATTE NE
1100 PM CDT SUN APR 23 2017

NOTE: "FAIR" INDICATES FEW OR NO CLOUDS BELOW 12,000 FEET WITH NO
SIGNIFICANT WEATHER AND/OR OBSTRUCTIONS TO VISIBILITY.

NOTE: STATIONS NOT REPORTING VARIABLES SUCH AS SKY/WEATHER OR
PRESSURE ARE PROVIDED BY RAWS AND APRS NETWORKS AND ARE NOT UNDER
NATIONAL WEATHER SERVICE QUALITY CONTROL.

...OBSERVATIONS IN AND NEAR THE EASTERN PANHANDLE OF NEBRASKA...

CITY           SKY/WX    TMP DP  RH WIND       PRES   REMARKS
PINE RIDGE     CLOUDY    65  40  39 S16G29    29.59F
CHADRON        CLOUDY    64  39  39 S23       29.55F
ALLIANCE       PTCLDY    50  39  66 SE9       29.65S
SIDNEY         CLOUDY    50  41  71 CALM      29.69S
CRESCENT LAKE    N/A     58  40  52 S10         N/A
$$

...OBSERVATIONS IN NORTHERN NEBRASKA AND FAR SOUTHERN SOUTH DAKOTA...

CITY           SKY/WX    TMP DP  RH WIND       PRES   REMARKS
WINNER         FAIR      63  34  33 S22G30    29.64F
VALENTINE      PTCLDY    64  35  34 S22G30    29.66F
THEDFORD       CLOUDY    58  35  41 S15G24    29.72S
AINSWORTH      MOCLDY    56  32  39 S14       29.70F
O`NEILL        PTCLDY    58  30  34 S16       29.76F
ORD            CLOUDY    57  30  35 SE10      29.77F
BROKEN BOW     CLOUDY    58  30  34 S15G25    29.76F
VALENTINE NWR    N/A     59  37  43 S10         N/A
HALSEY           N/A     60  30  32 S10G17      N/A
BUTTE            N/A     58  34  40 S15         N/A
CHAMBERS         N/A     55  31  40 S3          N/A
EWING            N/A     57  35  43 S8G15       N/A
$$

...OBSERVATIONS IN SOUTHWEST NEBRASKA AND FAR NORTHEAST COLORADO...

CITY           SKY/WX    TMP DP  RH WIND       PRES   REMARKS
HOLYOKE        FAIR      55  41  58 S14       29.69F
IMPERIAL       PTCLDY    56  39  53 S18       29.70F
OGALLALA       CLOUDY    58  39  49 S14G21    29.68F
NORTH PLATTE   CLOUDY    60  31  33 S15       29.73F
MCCOOK         CLOUDY    57  33  40 S13G22    29.74F
LEXINGTON      CLOUDY    56  31  38 S16       29.77F
STAPLETON        N/A     55  33  44 CALM        N/A
GOTHENBURG       N/A     60  29  30 S12         N/A
CALLAWAY         N/A     57  31  37 S21         N/A
$$

...OBSERVATIONS IN CENTRAL LINCOLN COUNTY AREA...

CITY           SKY/WX    TMP DP  RH WIND       PRES   REMARKS
N.P. AIRPORT   CLOUDY    60  31  33 S15       29.73F
N.P. DOWNTOWN    N/A     58  33  39 SE6G18      N/A
N.P. HILLCREST   N/A     58  33  39 S15G24      N/A
$$

...SOME OBSERVATIONS FROM AROUND THE REGION...

CITY           SKY/WX    TMP DP  RH WIND       PRES   REMARKS
DENVER         CLOUDY    60  38  43 W12       29.69R
LIMON          CLOUDY    46  39  76 SE6       29.73S
ASPEN          CLOUDY    50  22  33 S8        29.84F
LARAMIE        CLOUDY    49  27  42 SW16      29.75F
CASPER         CLOUDY    53  38  56 SW12      29.70R
CHEYENNE       CLOUDY    50  37  61 SW7       29.73F
SCOTTSBLUFF    CLOUDY    58  37  45 E10       29.63F
GRAND ISLAND   CLOUDY    55  35  47 S15       29.84F
OMAHA          CLOUDY    60  32  34 S16       29.90F
SIOUX FALLS    CLOUDY    60  31  33 S16G25    29.79S
PIERRE         CLOUDY    50  42  74 N12       29.59F
RAPID CITY     CLOUDY    49  41  74 N12       29.62S
BISMARCK       CLOUDY    33  31  92 E15G23    29.83F WCI  23
KANSAS CITY    PTCLDY    52  35  52 S8        29.99F
HILL CITY      CLOUDY    56  39  53 S15G25    29.80F
WICHITA        CLOUDY    52  40  63 VRB7      29.95F
DODGE CITY     CLEAR     54  35  48 S17G28    29.86F
OKLAHOMA CITY  PTCLDY    49  40  71 S5        29.99F
DALLAS         CLEAR     63  40  42 CALM      30.00S
AMARILLO       CLEAR     58  34  40 S20G28    29.93F
$$




USA.gov is the U.S. government's official web portal to all federal, state and local government web resources and services.